NETSAT-2

Last updated on Mon Sep 21 2026 00:03:45 GMT+0000 (Coordinated Universal Time)

1 46507U 20068X 26263.32312026 .00015676 00000+0 28473-3 0 9997 2 46507 97.8615 279.7367 0004193 39.2963 320.8590 15.49656940330451
UTC large
Height (km)
Speed (km/s)
/
Latitude / Longitude
Inclination (degrees)
Orbital Period (minutes)
Azimuth
Elevation
Range (km)
Doppler Factor

Next 0 passes for location: London (51.5072 / 0.1276)

No passes found over London.
NETSAT-2